Regional Weather Roundup
Issued by NWS Goodland, KS

Home | Current Version | Previous Version | Graphics & Text | Print | Product List | Glossary On
Versions: 1 2 3 4 5 6 7 8 9 10 11 12 13 14 15 16 17 18 19 20 21 22 23 24 25 26 27 28 29 30 31 32 33 34 35 36 37 38 39 40 41 42 43 44 45 46 47 48 49 50
410
ASUS43 KGLD 302008
RWRGLD

GOODLAND FORECAST AREA HOURLY WEATHER ROUNDUP
NATIONAL WEATHER SERVICE GOODLAND KS
200 PM MDT SAT APR 30 2016

...OFFICIAL OBSERVATIONS...

CITY           SKY/WX    TMP DP  RH WIND       PRES   REMARKS
GOODLAND KS    CLOUDY    39  34  82 N20G26    29.85R
HILL CITY KS   CLOUDY    47  38  71 NW10      29.82R
IMPERIAL NEB   LGT SNOW  34  32  92 N16       29.87R VSB 1
MCCOOK NEB     CLOUDY    42  36  79 N14       29.83R
AKRON CO       LGT SNOW  33  31  92 N26       29.92R VSB 3/4 WCI  20
BURLINGTON CO  CLOUDY    36  31  82 NW20G25   29.89R
LIMON CO       LGT SNOW  34  30  85 NW24      29.94R FOG
$$

...UNOFFICIAL OBSERVATIONS...

CITY           SKY/WX    TMP DP  RH WIND       PRES   REMARKS
COLBY KS       CLOUDY    45  39  81 NW16      29.84R
GOVE KS          N/A     47  32  56 MISG        N/A
LENORA KS        N/A     44  32  63 MISG        N/A
NORTON KS      CLOUDY    43  36  75 NW12      29.81R
SHARON SPRINGS   N/A     42  36  80 W16G24      N/A
KIT CARSON CO    N/A     39  34  81 MISG        N/A
YUMA CO          N/A     34  32  94 NW13G20     N/A
$$




USA.gov is the U.S. government's official web portal to all federal, state and local government web resources and services.